Location: Noyers
(47.2770°N, 1.4032°E)
Time: 23:10:53
(UTC+00:00)

Geosat - Pass Details

Date: 15 May 2026
Orbit: 758 x 760 km, 108.0° (Epoch: 11 June)

Event Time Altitude Azimuth Distance (km) Brightness Sun altitude
Rises 22:26:35 0° 29° (NNE) 3,229 7.8 -21.0°
Reaches altitude 10° 22:28:52 10° 30° (NNE) 2,300 7.0 -21.2°
Maximum altitude 22:33:54 82° 118° (ESE) 773 3.9 -21.5°
Enters shadow 22:35:39 42° 202° (SSW) 1,084 4.4 -21.6°
